| time (UTC) | temp F | wind direction | speed MPH | gust MPH | rain 1hr in | rain 24hr in | rain mn in | humidity % | barometer mb |
| 20260507071647 | 57 | 320 | 0.0 | 2.0 | 0.00 | 0.01 | 0.01 | 99 | 1013.0 |
| 20260507071143 | 57 | 355 | 1.0 | 2.0 | 0.00 | 0.01 | 0.01 | 99 | 1012.9 |
| 20260507070640 | 58 | 3 | 0.0 | 3.0 | 0.00 | 0.01 | 0.01 | 99 | 1013.1 |
| 20260507070137 | 58 | 271 | 1.0 | 6.0 | 0.00 | 0.01 | 0.01 | 99 | 1012.9 |
| 20260507065633 | 58 | 31 | 1.0 | 3.0 | 0.00 | 0.01 | 0.01 | 99 | 1012.6 |
| 20260507065130 | 58 | 289 | 0.0 | 0.0 | 0.00 | 0.01 | 0.01 | 99 | 1012.5 |
| 20260507064628 | 58 | 258 | 0.0 | 2.0 | 0.00 | 0.01 | 0.01 | 99 | 1012.4 |
| 20260507064127 | 58 | 1 | 0.0 | 0.0 | 0.00 | 0.01 | 0.01 | 99 | 1012.0 |
| 20260507063624 | 58 | 309 | 1.0 | 1.0 | 0.00 | 0.01 | 0.01 | 99 | 1011.9 |
| 20260507063121 | 58 | 291 | 0.0 | 0.0 | 0.00 | 0.01 | 0.01 | 99 | 1012.0 |
| 20260507062617 | 58 | 290 | 0.0 | 0.0 | 0.00 | 0.01 | 0.01 | 99 | 1011.6 |
| 20260507062115 | 58 | 303 | 0.0 | 0.0 | 0.00 | 0.01 | 0.01 | 99 | 1011.3 |
| 20260507061613 | 59 | 308 | 0.0 | 0.0 | 0.00 | 0.01 | 0.01 | 99 | 1011.5 |
| 20260507061111 | 59 | 278 | 0.0 | 0.0 | 0.00 | 0.01 | 0.01 | 99 | 1011.2 |
| 20260507060609 | 59 | 2 | 1.0 | 2.0 | 0.00 | 0.01 | 0.01 | 99 | 1011.4 |
| 20260507060104 | 59 | 351 | 0.0 | 0.0 | 0.00 | 0.01 | 0.01 | 99 | 1011.5 |
| 20260507055600 | 59 | 321 | 1.0 | 2.0 | 0.00 | 0.01 | 0.01 | 99 | 1011.6 |
| 20260507055056 | 59 | 7 | 1.0 | 3.0 | 0.00 | 0.01 | 0.01 | 98 | 1012.1 |
| 20260507054552 | 59 | 22 | 2.0 | 3.0 | 0.00 | 0.01 | 0.01 | 98 | 1012.2 |
| 20260507054049 | 59 | 135 | 1.0 | 2.0 | 0.00 | 0.01 | 0.01 | 98 | 1012.1 |
| 20260507053547 | 60 | 335 | 0.0 | 2.0 | 0.00 | 0.01 | 0.01 | 98 | 1012.1 |
| 20260507053046 | 60 | 256 | 0.0 | 0.0 | 0.00 | 0.01 | 0.01 | 97 | 1012.4 |
| 20260507052543 | 60 | 315 | 0.0 | 2.0 | 0.00 | 0.01 | 0.01 | 96 | 1012.0 |
| 20260507052040 | 60 | 339 | 1.0 | 3.0 | 0.00 | 0.01 | 0.01 | 96 | 1012.0 |
| 20260507051537 | 61 | 330 | 3.0 | 3.0 | 0.05 | 0.01 | 0.01 | 95 | 1012.2 |
| 20260507051034 | 62 | 332 | 1.0 | 2.0 | 0.05 | 0.01 | 0.01 | 95 | 1012.6 |
| 20260507050530 | 62 | 30 | 3.0 | 3.0 | 0.00 | 0.00 | 0.00 | 94 | 1012.7 |
| 20260507050027 | 63 | 342 | 1.0 | 3.0 | 0.00 | 0.00 | 0.00 | 93 | 1012.5 |
| 20260507045524 | 63 | 267 | 1.0 | 3.0 | 0.00 | 0.00 | 0.00 | 93 | 1012.4 |
| 20260507045021 | 63 | 11 | 1.0 | 2.0 | 0.00 | 0.00 | 0.00 | 93 | 1012.2 |
| 20260507044518 | 64 | 349 | 3.0 | 4.0 | 0.00 | 0.00 | 0.00 | 92 | 1012.3 |
| 20260507044014 | 64 | 0 | 0.0 | 2.0 | 0.00 | 0.00 | 0.00 | 93 | 1012.1 |
| 20260507043510 | 65 | 253 | 0.0 | 1.0 | 0.00 | 0.00 | 0.00 | 93 | 1011.9 |
| 20260507043008 | 64 | 0 | 1.0 | 7.0 | 0.00 | 0.00 | 0.00 | 94 | 1012.1 |
| 20260507042504 | 64 | 315 | 0.0 | 0.0 | 0.00 | 0.00 | 0.00 | 97 | 1012.3 |
| 20260507041959 | 64 | 318 | 0.0 | 0.0 | 0.00 | 0.00 | 0.00 | 97 | 1012.0 |
| 20260507041456 | 64 | 314 | 0.0 | 0.0 | 0.00 | 0.00 | 0.00 | 98 | 1012.0 |
| 20260507040953 | 64 | 314 | 0.0 | 0.0 | 0.00 | 0.00 | 0.00 | 98 | 1011.8 |
| 20260507040449 | 64 | 314 | 0.0 | 0.0 | 0.00 | 0.00 | 0.00 | 98 | 1011.9 |
| 20260507035945 | 64 | 314 | 0.0 | 0.0 | 0.00 | 0.05 | 0.05 | 97 | 1011.8 |
| 20260507035442 | 64 | 315 | 0.0 | 0.0 | 0.00 | 0.05 | 0.05 | 97 | 1011.6 |
| 20260507034939 | 64 | 269 | 0.0 | 0.0 | 0.00 | 0.05 | 0.05 | 97 | 1011.7 |
| 20260507034435 | 64 | 250 | 0.0 | 0.0 | 0.00 | 0.05 | 0.05 | 97 | 1011.7 |
| 20260507033934 | 64 | 249 | 0.0 | 0.0 | 0.00 | 0.05 | 0.05 | 97 | 1011.9 |
| 20260507033431 | 64 | 314 | 0.0 | 0.0 | 0.00 | 0.05 | 0.05 | 98 | 1011.8 |
| 20260507032928 | 64 | 273 | 0.0 | 0.0 | 0.00 | 0.05 | 0.05 | 98 | 1012.0 |
| 20260507032425 | 64 | 273 | 0.0 | 0.0 | 0.00 | 0.05 | 0.05 | 98 | 1012.0 |
| 20260507031921 | 64 | 273 | 0.0 | 0.0 | 0.00 | 0.05 | 0.05 | 97 | 1011.9 |
| 20260507031418 | 64 | 273 | 0.0 | 0.0 | 0.00 | 0.05 | 0.05 | 97 | 1012.0 |
| 20260507030914 | 64 | 285 | 0.0 | 0.0 | 0.00 | 0.05 | 0.05 | 97 | 1011.5 |
| 20260507030412 | 64 | 312 | 0.0 | 0.0 | 0.00 | 0.05 | 0.05 | 97 | 1011.5 |
| 20260507025909 | 64 | 312 | 0.0 | 0.0 | 0.00 | 0.05 | 0.05 | 96 | 1011.6 |
| 20260507025406 | 64 | 313 | 0.0 | 0.0 | 0.00 | 0.05 | 0.05 | 96 | 1011.7 |
| 20260507024904 | 64 | 313 | 0.0 | 0.0 | 0.00 | 0.05 | 0.05 | 95 | 1011.3 |
| 20260507024401 | 64 | 313 | 0.0 | 0.0 | 0.00 | 0.05 | 0.05 | 95 | 1011.1 |
| 20260507023857 | 64 | 313 | 0.0 | 0.0 | 0.00 | 0.05 | 0.05 | 95 | 1011.2 |
| 20260507023353 | 64 | 315 | 0.0 | 0.0 | 0.00 | 0.05 | 0.05 | 95 | 1011.3 |
| 20260507022851 | 65 | 284 | 0.0 | 0.0 | 0.00 | 0.05 | 0.05 | 95 | 1011.2 |
| 20260507022347 | 65 | 284 | 0.0 | 0.0 | 0.00 | 0.05 | 0.05 | 94 | 1011.4 |
| 20260507021843 | 65 | 313 | 0.0 | 0.0 | 0.00 | 0.05 | 0.05 | 94 | 1011.4 |
| 20260507021338 | 65 | 283 | 0.0 | 0.0 | 0.00 | 0.05 | 0.05 | 94 | 1011.4 |
| 20260507020837 | 65 | 252 | 0.0 | 0.0 | 0.00 | 0.05 | 0.05 | 95 | 1011.5 |
| 20260507020333 | 65 | 252 | 0.0 | 0.0 | 0.00 | 0.05 | 0.05 | 95 | 1011.8 |
| 20260507015830 | 65 | 252 | 0.0 | 0.0 | 0.00 | 0.05 | 0.05 | 95 | 1011.8 |
| 20260507015328 | 65 | 254 | 0.0 | 0.0 | 0.00 | 0.05 | 0.05 | 95 | 1011.7 |
| 20260507014820 | 65 | 255 | 0.0 | 0.0 | 0.00 | 0.05 | 0.05 | 95 | 1011.9 |
| 20260507014316 | 66 | 255 | 0.0 | 0.0 | 0.00 | 0.05 | 0.05 | 94 | 1012.0 |
| 20260507013812 | 66 | 253 | 0.0 | 0.0 | 0.00 | 0.05 | 0.05 | 93 | 1011.7 |
| 20260507013309 | 66 | 272 | 0.0 | 0.0 | 0.00 | 0.05 | 0.05 | 93 | 1011.7 |
| 20260507012806 | 66 | 288 | 0.0 | 0.0 | 0.00 | 0.05 | 0.05 | 93 | 1011.8 |
| 20260507012305 | 66 | 288 | 0.0 | 0.0 | 0.00 | 0.05 | 0.05 | 93 | 1011.6 |
| 20260507011800 | 66 | 252 | 0.0 | 0.0 | 0.00 | 0.05 | 0.05 | 92 | 1011.6 |
| 20260507011256 | 66 | 278 | 0.0 | 0.0 | 0.00 | 0.05 | 0.05 | 92 | 1011.6 |
| 20260507010755 | 66 | 254 | 0.0 | 0.0 | 0.00 | 0.05 | 0.05 | 91 | 1011.6 |
| 20260507010252 | 66 | 249 | 0.0 | 0.0 | 0.00 | 0.05 | 0.05 | 91 | 1011.6 |
| 20260507005749 | 66 | 290 | 0.0 | 0.0 | 0.00 | 0.05 | 0.05 | 91 | 1011.5 |
| 20260507005246 | 66 | 275 | 0.0 | 1.0 | 0.00 | 0.05 | 0.05 | 92 | 1011.5 |
| 20260507005054 | 66 | 255 | 0.0 | 2.0 | 0.00 | 0.00 | 0.00 | 92 | 1015.6 |
| 20260507004742 | 66 | 270 | 0.0 | 0.0 | 0.00 | 0.05 | 0.05 | 93 | 1011.5 |
| 20260507004240 | 65 | 268 | 0.0 | 0.0 | 0.00 | 0.05 | 0.05 | 93 | 1011.5 |
| 20260507004031 | 65 | 311 | 0.0 | 2.0 | 0.00 | 0.00 | 0.00 | 93 | 1015.6 |
| 20260507003736 | 65 | 343 | 1.0 | 2.0 | 0.00 | 0.05 | 0.05 | 94 | 1011.4 |
| 20260507003231 | 65 | 250 | 0.0 | 0.0 | 0.00 | 0.05 | 0.05 | 93 | 1011.3 |
| 20260507003029 | 65 | 0.0 | 0.0 | 0.00 | 0.00 | 0.00 | 93 | 1015.5 | |
| 20260507002728 | 65 | 275 | 0.0 | 0.0 | 0.00 | 0.05 | 0.05 | 93 | 1011.4 |
| 20260507002224 | 66 | 260 | 0.0 | 0.0 | 0.00 | 0.05 | 0.05 | 93 | 1011.2 |
| 20260507002027 | 66 | 0.0 | 0.0 | 0.00 | 0.00 | 0.00 | 92 | 1015.5 | |
| 20260507001721 | 66 | 267 | 0.0 | 0.0 | 0.00 | 0.05 | 0.05 | 93 | 1011.3 |
| 20260507001218 | 66 | 255 | 0.0 | 0.0 | 0.00 | 0.05 | 0.05 | 92 | 1011.7 |
| 20260507001025 | 66 | 0.0 | 0.0 | 0.00 | 0.00 | 0.00 | 91 | 1015.4 | |
| 20260507000714 | 66 | 254 | 0.0 | 0.0 | 0.00 | 0.05 | 0.05 | 91 | 1011.2 |
| 20260507000212 | 67 | 262 | 0.0 | 0.0 | 0.00 | 0.05 | 0.05 | 90 | 1011.2 |
| 20260507000023 | 67 | 0.0 | 0.0 | 0.00 | 0.00 | 0.00 | 89 | 1015.4 | |
| 20260506235707 | 67 | 264 | 0.0 | 0.0 | 0.00 | 0.05 | 0.05 | 89 | 1011.2 |
| 20260506235202 | 68 | 293 | 0.0 | 0.0 | 0.00 | 0.05 | 0.05 | 88 | 1011.2 |
| 20260506235020 | 68 | 264 | 0.0 | 1.0 | 0.00 | 0.00 | 0.00 | 87 | 1015.2 |
| 20260506234659 | 68 | 252 | 0.0 | 1.0 | 0.00 | 0.05 | 0.05 | 87 | 1011.1 |
| 20260506234156 | 68 | 228 | 0.0 | 0.0 | 0.00 | 0.05 | 0.05 | 86 | 1010.9 |
| 20260506234018 | 69 | 278 | 1.0 | 3.0 | 0.00 | 0.00 | 0.00 | 86 | 1015.1 |
| 20260506233654 | 69 | 242 | 2.0 | 4.0 | 0.00 | 0.05 | 0.05 | 86 | 1011.0 |
| 20260506233151 | 68 | 254 | 1.0 | 2.0 | 0.00 | 0.05 | 0.05 | 86 | 1011.1 |
| 20260506233055 | 69 | 247 | 1.0 | 2.0 | 0.00 | 0.00 | 0.00 | 86 | 1015.3 |
| 20260506232647 | 69 | 275 | 3.0 | 3.0 | 0.00 | 0.05 | 0.05 | 85 | 1011.0 |
| 20260506232142 | 69 | 244 | 0.0 | 2.0 | 0.00 | 0.05 | 0.05 | 85 | 1011.0 |
| 20260506232047 | 69 | 280 | 3.0 | 6.0 | 0.00 | 0.00 | 0.00 | 85 | 1015.2 |
| 20260506231640 | 69 | 266 | 1.0 | 3.0 | 0.00 | 0.05 | 0.05 | 86 | 1011.0 |
| 20260506231138 | 69 | 243 | 1.0 | 2.0 | 0.00 | 0.05 | 0.05 | 85 | 1010.9 |
| 20260506231038 | 69 | 272 | 2.0 | 4.0 | 0.00 | 0.00 | 0.00 | 85 | 1015.0 |
| 20260506230635 | 69 | 233 | 1.0 | 3.0 | 0.00 | 0.05 | 0.05 | 85 | 1010.9 |
| 20260506230132 | 69 | 242 | 0.0 | 9.0 | 0.00 | 0.05 | 0.05 | 85 | 1010.8 |
| 20260506230052 | 69 | 265 | 1.0 | 3.0 | 0.00 | 0.00 | 0.00 | 85 | 1015.0 |
| 20260506225628 | 69 | 235 | 0.0 | 2.0 | 0.00 | 0.05 | 0.05 | 84 | 1010.9 |
| 20260506225125 | 69 | 239 | 1.0 | 2.0 | 0.00 | 0.05 | 0.05 | 84 | 1010.9 |
| 20260506225023 | 69 | 263 | 1.0 | 4.0 | 0.00 | 0.00 | 0.00 | 84 | 1015.0 |
| 20260506224621 | 69 | 252 | 0.0 | 1.0 | 0.00 | 0.05 | 0.05 | 84 | 1010.6 |
| 20260506224118 | 69 | 253 | 1.0 | 6.0 | 0.00 | 0.05 | 0.05 | 84 | 1011.0 |
| 20260506224056 | 69 | 261 | 3.0 | 8.0 | 0.00 | 0.00 | 0.00 | 84 | 1015.0 |
| 20260506223614 | 69 | 252 | 2.0 | 3.0 | 0.00 | 0.05 | 0.05 | 84 | 1010.6 |
| 20260506223110 | 70 | 296 | 1.0 | 7.0 | 0.00 | 0.05 | 0.05 | 84 | 1010.7 |
| 20260506223051 | 70 | 273 | 3.0 | 7.0 | 0.00 | 0.00 | 0.00 | 83 | 1014.9 |
| 20260506222607 | 70 | 265 | 3.0 | 7.0 | 0.00 | 0.05 | 0.05 | 83 | 1010.6 |
| 20260506222104 | 70 | 260 | 4.0 | 9.0 | 0.00 | 0.05 | 0.05 | 83 | 1010.7 |
| 20260506222042 | 70 | 263 | 2.0 | 6.0 | 0.00 | 0.00 | 0.00 | 83 | 1014.8 |
| 20260506221602 | 70 | 243 | 2.0 | 3.0 | 0.00 | 0.05 | 0.05 | 84 | 1010.6 |
| 20260506221059 | 69 | 267 | 0.0 | 3.0 | 0.00 | 0.05 | 0.05 | 84 | 1010.9 |
| 20260506221035 | 69 | 273 | 2.0 | 6.0 | 0.00 | 0.00 | 0.00 | 84 | 1015.0 |
| 20260506220555 | 69 | 262 | 4.0 | 4.0 | 0.00 | 0.05 | 0.05 | 83 | 1010.8 |
| 20260506220051 | 69 | 275 | 4.0 | 7.0 | 0.00 | 0.05 | 0.05 | 83 | 1010.7 |
| 20260506220026 | 70 | 261 | 5.0 | 11.0 | 0.00 | 0.00 | 0.00 | 83 | 1015.0 |
| 20260506215548 | 70 | 293 | 3.0 | 6.0 | 0.00 | 0.05 | 0.05 | 83 | 1010.8 |
| 20260506215043 | 70 | 271 | 2.0 | 8.0 | 0.00 | 0.05 | 0.05 | 83 | 1011.0 |
| 20260506215019 | 70 | 269 | 4.0 | 9.0 | 0.00 | 0.00 | 0.00 | 83 | 1015.3 |
| 20260506214540 | 70 | 268 | 4.0 | 6.0 | 0.00 | 0.05 | 0.05 | 83 | 1011.1 |
| 20260506214117 | 69 | 272 | 3.0 | 8.0 | 0.00 | 0.00 | 0.00 | 83 | 1015.1 |
| 20260506214038 | 70 | 269 | 3.0 | 6.0 | 0.00 | 0.05 | 0.05 | 83 | 1010.9 |
| 20260506213536 | 69 | 281 | 3.0 | 6.0 | 0.00 | 0.05 | 0.05 | 83 | 1010.9 |
| 20260506213049 | 69 | 272 | 3.0 | 8.0 | 0.00 | 0.00 | 0.00 | 83 | 1015.1 |
| 20260506213033 | 69 | 269 | 3.0 | 4.0 | 0.00 | 0.05 | 0.05 | 83 | 1010.8 |
| 20260506212529 | 69 | 255 | 4.0 | 10.0 | 0.00 | 0.05 | 0.05 | 84 | 1010.8 |
| 20260506212036 | 69 | 256 | 4.0 | 8.0 | 0.00 | 0.00 | 0.00 | 84 | 1015.2 |
| 20260506212024 | 69 | 275 | 2.0 | 8.0 | 0.00 | 0.05 | 0.05 | 84 | 1010.9 |
| 20260506211520 | 69 | 264 | 1.0 | 6.0 | 0.00 | 0.05 | 0.05 | 83 | 1011.1 |
| 20260506211029 | 69 | 271 | 4.0 | 9.0 | 0.00 | 0.00 | 0.00 | 83 | 1015.1 |
| 20260506211018 | 69 | 312 | 3.0 | 6.0 | 0.00 | 0.05 | 0.05 | 83 | 1010.9 |
| 20260506210514 | 69 | 277 | 4.0 | 8.0 | 0.00 | 0.05 | 0.05 | 83 | 1010.9 |
| 20260506210016 | 69 | 264 | 2.0 | 6.0 | 0.00 | 0.00 | 0.00 | 84 | 1015.0 |
| 20260506210011 | 69 | 295 | 1.0 | 2.0 | 0.00 | 0.05 | 0.05 | 84 | 1010.8 |
| 20260506205508 | 68 | 262 | 2.0 | 7.0 | 0.00 | 0.05 | 0.05 | 85 | 1010.8 |
| 20260506205050 | 68 | 274 | 4.0 | 9.0 | 0.00 | 0.00 | 0.00 | 84 | 1014.9 |
| 20260506205003 | 68 | 266 | 3.0 | 6.0 | 0.00 | 0.05 | 0.05 | 85 | 1010.6 |
| 20260506204501 | 68 | 302 | 4.0 | 9.0 | 0.00 | 0.05 | 0.05 | 84 | 1010.7 |
| 20260506204041 | 68 | 300 | 3.0 | 7.0 | 0.00 | 0.00 | 0.00 | 84 | 1014.9 |
| 20260506203958 | 68 | 255 | 5.0 | 8.0 | 0.00 | 0.05 | 0.05 | 84 | 1010.8 |
| 20260506203456 | 68 | 293 | 3.0 | 6.0 | 0.00 | 0.05 | 0.05 | 85 | 1010.6 |
| 20260506203057 | 68 | 263 | 4.0 | 7.0 | 0.00 | 0.00 | 0.00 | 85 | 1015.1 |
| 20260506202952 | 68 | 271 | 4.0 | 7.0 | 0.00 | 0.05 | 0.05 | 85 | 1011.0 |
| 20260506202450 | 68 | 245 | 2.0 | 6.0 | 0.00 | 0.05 | 0.05 | 85 | 1011.1 |
| 20260506202032 | 67 | 257 | 4.0 | 11.0 | 0.00 | 0.00 | 0.00 | 86 | 1014.8 |
| 20260506201946 | 67 | 228 | 3.0 | 3.0 | 0.00 | 0.05 | 0.05 | 85 | 1010.7 |
| 20260506201444 | 67 | 283 | 6.0 | 8.0 | 0.00 | 0.05 | 0.05 | 86 | 1010.8 |
| 20260506201026 | 67 | 282 | 3.0 | 8.0 | 0.00 | 0.00 | 0.00 | 87 | 1015.0 |
| 20260506200940 | 67 | 249 | 4.0 | 4.0 | 0.00 | 0.05 | 0.05 | 87 | 1010.9 |
| 20260506200436 | 67 | 269 | 3.0 | 3.0 | 0.00 | 0.05 | 0.05 | 87 | 1011.0 |
| 20260506200023 | 67 | 263 | 3.0 | 7.0 | 0.00 | 0.00 | 0.00 | 87 | 1015.4 |
| 20260506195933 | 67 | 228 | 2.0 | 7.0 | 0.00 | 0.05 | 0.05 | 87 | 1011.1 |
| 20260506195430 | 67 | 236 | 2.0 | 4.0 | 0.00 | 0.05 | 0.05 | 87 | 1011.1 |
| 20260506195052 | 67 | 261 | 4.0 | 13.0 | 0.00 | 0.00 | 0.00 | 87 | 1015.0 |
| 20260506194926 | 67 | 265 | 5.0 | 8.0 | 0.00 | 0.05 | 0.05 | 87 | 1010.8 |
| 20260506194424 | 67 | 263 | 3.0 | 9.0 | 0.00 | 0.05 | 0.05 | 86 | 1011.3 |
| 20260506194105 | 67 | 262 | 3.0 | 7.0 | 0.00 | 0.00 | 0.00 | 88 | 1015.6 |
| 20260506193920 | 67 | 266 | 5.0 | 10.0 | 0.00 | 0.05 | 0.05 | 87 | 1011.3 |
| 20260506193418 | 67 | 251 | 3.0 | 6.0 | 0.00 | 0.05 | 0.05 | 88 | 1011.4 |
| 20260506193039 | 67 | 251 | 2.0 | 7.0 | 0.00 | 0.00 | 0.00 | 88 | 1015.7 |
| 20260506192914 | 67 | 250 | 2.0 | 8.0 | 0.00 | 0.05 | 0.05 | 88 | 1011.6 |
| 20260506192411 | 67 | 270 | 2.0 | 7.0 | 0.00 | 0.05 | 0.05 | 88 | 1011.4 |
| 20260506192057 | 67 | 247 | 4.0 | 14.0 | 0.00 | 0.00 | 0.00 | 87 | 1015.7 |
| 20260506191908 | 67 | 244 | 2.0 | 7.0 | 0.00 | 0.05 | 0.05 | 87 | 1011.5 |
| 20260506191404 | 67 | 268 | 2.0 | 8.0 | 0.00 | 0.05 | 0.05 | 87 | 1011.8 |
| 20260506191047 | 67 | 258 | 4.0 | 7.0 | 0.00 | 0.00 | 0.00 | 88 | 1016.0 |
| 20260506190902 | 67 | 237 | 2.0 | 7.0 | 0.00 | 0.05 | 0.05 | 88 | 1012.0 |
| 20260506190358 | 67 | 230 | 5.0 | 9.0 | 0.00 | 0.05 | 0.05 | 88 | 1011.8 |
| 20260506190055 | 67 | 225 | 2.0 | 4.0 | 0.00 | 0.00 | 0.00 | 89 | 1016.1 |
| 20260506185855 | 67 | 245 | 3.0 | 3.0 | 0.00 | 0.05 | 0.05 | 89 | 1011.9 |
| 20260506185351 | 67 | 258 | 5.0 | 6.0 | 0.00 | 0.05 | 0.05 | 88 | 1011.5 |
| 20260506185041 | 67 | 274 | 3.0 | 7.0 | 0.00 | 0.00 | 0.00 | 88 | 1016.0 |
| 20260506184843 | 67 | 267 | 6.0 | 9.0 | 0.00 | 0.05 | 0.05 | 87 | 1011.9 |
| 20260506184340 | 67 | 258 | 2.0 | 3.0 | 0.00 | 0.05 | 0.05 | 88 | 1011.8 |
| 20260506184029 | 66 | 266 | 3.0 | 8.0 | 0.00 | 0.00 | 0.00 | 88 | 1016.1 |
| 20260506183837 | 66 | 269 | 5.0 | 8.0 | 0.00 | 0.05 | 0.05 | 88 | 1011.8 |
| 20260506183332 | 66 | 284 | 4.0 | 8.0 | 0.00 | 0.05 | 0.05 | 89 | 1012.0 |
| 20260506183016 | 66 | 275 | 3.0 | 6.0 | 0.00 | 0.00 | 0.00 | 89 | 1016.1 |
| 20260506182830 | 66 | 35 | 1.0 | 4.0 | 0.00 | 0.05 | 0.05 | 89 | 1011.8 |
| 20260506182326 | 66 | 252 | 1.0 | 3.0 | 0.00 | 0.05 | 0.05 | 89 | 1012.2 |
| 20260506182047 | 66 | 264 | 3.0 | 6.0 | 0.00 | 0.00 | 0.00 | 89 | 1016.6 |
| 20260506181824 | 66 | 285 | 4.0 | 6.0 | 0.00 | 0.05 | 0.05 | 88 | 1012.3 |
| 20260506181322 | 67 | 267 | 2.0 | 3.0 | 0.00 | 0.05 | 0.05 | 88 | 1012.5 |
| 20260506181035 | 67 | 247 | 3.0 | 8.0 | 0.00 | 0.00 | 0.00 | 88 | 1016.4 |
| 20260506180819 | 67 | 237 | 4.0 | 10.0 | 0.00 | 0.05 | 0.05 | 87 | 1012.3 |
| 20260506180315 | 66 | 242 | 2.0 | 4.0 | 0.00 | 0.05 | 0.05 | 88 | 1012.2 |
| 20260506180026 | 66 | 272 | 2.0 | 3.0 | 0.00 | 0.00 | 0.00 | 89 | 1016.6 |
| 20260506175811 | 66 | 244 | 2.0 | 3.0 | 0.00 | 0.05 | 0.05 | 89 | 1012.4 |
| 20260506175308 | 65 | 146 | 1.0 | 6.0 | 0.00 | 0.05 | 0.05 | 90 | 1012.5 |
| 20260506175055 | 65 | 280 | 3.0 | 7.0 | 0.00 | 0.00 | 0.00 | 90 | 1016.5 |
| 20260506174806 | 65 | 334 | 3.0 | 6.0 | 0.00 | 0.05 | 0.05 | 90 | 1012.2 |
| 20260506174303 | 65 | 240 | 2.0 | 4.0 | 0.00 | 0.05 | 0.05 | 91 | 1012.4 |
| 20260506174044 | 65 | 255 | 3.0 | 11.0 | 0.00 | 0.00 | 0.00 | 90 | 1016.6 |
| 20260506173800 | 65 | 209 | 2.0 | 10.0 | 0.00 | 0.05 | 0.05 | 90 | 1012.3 |
| 20260506173257 | 65 | 195 | 2.0 | 14.0 | 0.00 | 0.05 | 0.05 | 90 | 1012.5 |
| 20260506173033 | 65 | 271 | 3.0 | 8.0 | 0.00 | 0.00 | 0.00 | 90 | 1016.5 |
| 20260506172754 | 65 | 238 | 1.0 | 3.0 | 0.00 | 0.05 | 0.05 | 91 | 1012.4 |
| 20260506172250 | 65 | 288 | 4.0 | 6.0 | 0.00 | 0.05 | 0.05 | 91 | 1012.5 |
| 20260506172022 | 65 | 270 | 2.0 | 8.0 | 0.00 | 0.00 | 0.00 | 91 | 1016.6 |
| 20260506171748 | 65 | 210 | 2.0 | 4.0 | 0.00 | 0.05 | 0.05 | 91 | 1012.3 |
| 20260506171245 | 65 | 297 | 4.0 | 7.0 | 0.00 | 0.05 | 0.05 | 90 | 1012.6 |
| 20260506171051 | 64 | 251 | 3.0 | 8.0 | 0.00 | 0.00 | 0.00 | 91 | 1016.7 |
| 20260506170743 | 64 | 260 | 4.0 | 6.0 | 0.00 | 0.05 | 0.05 | 91 | 1012.6 |
| 20260506170239 | 64 | 199 | 2.0 | 7.0 | 0.00 | 0.05 | 0.05 | 92 | 1012.4 |
| 20260506165738 | 64 | 252 | 11.0 | 15.0 | 0.00 | 0.05 | 0.05 | 91 | 1012.5 |
| 20260506165234 | 64 | 266 | 3.0 | 6.0 | 0.00 | 0.05 | 0.05 | 93 | 1012.7 |
| 20260506165030 | 64 | 270 | 2.0 | 6.0 | 0.00 | 0.00 | 0.00 | 93 | 1016.7 |
| 20260506164731 | 64 | 300 | 6.0 | 8.0 | 0.00 | 0.05 | 0.05 | 93 | 1012.7 |
| 20260506164228 | 63 | 234 | 2.0 | 6.0 | 0.00 | 0.05 | 0.05 | 95 | 1012.8 |
| 20260506164021 | 63 | 266 | 3.0 | 8.0 | 0.00 | 0.00 | 0.00 | 96 | 1017.3 |
| 20260506163725 | 63 | 253 | 2.0 | 8.0 | 0.00 | 0.05 | 0.05 | 97 | 1013.1 |
| 20260506163220 | 62 | 222 | 3.0 | 6.0 | 0.00 | 0.05 | 0.05 | 97 | 1013.2 |
| 20260506163051 | 62 | 280 | 2.0 | 4.0 | 0.00 | 0.00 | 0.00 | 97 | 1017.1 |
| 20260506162716 | 62 | 250 | 2.0 | 3.0 | 0.00 | 0.05 | 0.05 | 98 | 1012.9 |
| 20260506162214 | 62 | 248 | 2.0 | 2.0 | 0.00 | 0.05 | 0.05 | 97 | 1013.0 |
| 20260506162042 | 62 | 247 | 1.0 | 2.0 | 0.00 | 0.00 | 0.00 | 97 | 1017.2 |
| 20260506161711 | 62 | 268 | 2.0 | 3.0 | 0.00 | 0.05 | 0.05 | 97 | 1013.2 |
| 20260506161208 | 62 | 222 | 2.0 | 3.0 | 0.00 | 0.05 | 0.05 | 97 | 1013.0 |
| 20260506161114 | 62 | 278 | 3.0 | 6.0 | 0.00 | 0.00 | 0.00 | 97 | 1017.3 |
| 20260506160706 | 62 | 205 | 1.0 | 4.0 | 0.07 | 0.05 | 0.05 | 97 | 1013.0 |
| 20260506160202 | 62 | 264 | 4.0 | 7.0 | 0.07 | 0.05 | 0.05 | 97 | 1012.9 |
| 20260506160021 | 62 | 278 | 2.0 | 7.0 | 0.00 | 0.00 | 0.00 | 97 | 1017.3 |
| 20260506155701 | 62 | 278 | 1.0 | 7.0 | 0.00 | 0.04 | 0.04 | 97 | 1013.2 |
| 20260506155158 | 62 | 60 | 2.0 | 9.0 | 0.12 | 0.04 | 0.04 | 97 | 1013.4 |
| 20260506155114 | 62 | 272 | 1.0 | 3.0 | 0.00 | 0.00 | 0.00 | 98 | 1017.2 |
| 20260506154104 | 62 | 261 | 2.0 | 8.0 | 0.00 | 0.00 | 0.00 | 97 | 1017.4 |
| 20260506153300 | 62 | 286 | 1.0 | 2.0 | 0.07 | 0.03 | 0.03 | 97 | 1013.1 |
| 20260506153035 | 62 | 256 | 2.0 | 3.0 | 0.00 | 0.00 | 0.00 | 97 | 1017.4 |
| 20260506152757 | 62 | 252 | 3.0 | 4.0 | 0.07 | 0.03 | 0.03 | 97 | 1013.3 |
| 20260506152254 | 62 | 298 | 1.0 | 7.0 | 0.00 | 0.02 | 0.02 | 97 | 1013.2 |
| 20260506152026 | 62 | 277 | 3.0 | 6.0 | 0.00 | 0.00 | 0.00 | 96 | 1017.7 |
| 20260506151753 | 62 | 256 | 3.0 | 6.0 | 0.00 | 0.02 | 0.02 | 96 | 1013.5 |
| 20260506151249 | 62 | 259 | 1.0 | 8.0 | 0.07 | 0.02 | 0.02 | 95 | 1013.4 |
| 20260506151017 | 62 | 283 | 2.0 | 4.0 | 0.00 | 0.00 | 0.00 | 94 | 1017.9 |
| 20260506150746 | 62 | 219 | 2.0 | 2.0 | 0.07 | 0.02 | 0.02 | 95 | 1013.7 |
| 20260506150243 | 63 | 231 | 1.0 | 3.0 | 0.00 | 0.01 | 0.01 | 94 | 1013.8 |
| 20260506150052 | 63 | 265 | 2.0 | 6.0 | 0.00 | 0.00 | 0.00 | 93 | 1017.9 |
| 20260506145740 | 63 | 220 | 2.0 | 3.0 | 0.00 | 0.01 | 0.01 | 93 | 1013.7 |
| 20260506145236 | 63 | 276 | 1.0 | 2.0 | 0.00 | 0.01 | 0.01 | 93 | 1013.7 |
| 20260506145044 | 63 | 267 | 2.0 | 3.0 | 0.00 | 0.00 | 0.00 | 93 | 1017.9 |
| 20260506144734 | 63 | 244 | 1.0 | 3.0 | 0.00 | 0.01 | 0.01 | 92 | 1013.7 |
| 20260506144231 | 63 | 269 | 0.0 | 0.0 | 0.00 | 0.01 | 0.01 | 94 | 1013.7 |
| 20260506143728 | 62 | 288 | 0.0 | 7.0 | 0.00 | 0.01 | 0.01 | 94 | 1013.7 |
| 20260506143226 | 62 | 283 | 1.0 | 3.0 | 0.00 | 0.01 | 0.01 | 94 | 1013.5 |
| 20260506143055 | 62 | 275 | 0.0 | 2.0 | 0.00 | 0.00 | 0.00 | 95 | 1017.8 |
| 20260506142724 | 62 | 290 | 2.0 | 2.0 | 0.00 | 0.01 | 0.01 | 95 | 1013.6 |
| 20260506142222 | 62 | 312 | 0.0 | 1.0 | 0.00 | 0.01 | 0.01 | 95 | 1013.6 |
| 20260506142027 | 62 | 284 | 1.0 | 3.0 | 0.00 | 0.00 | 0.00 | 95 | 1017.8 |
| 20260506141720 | 62 | 294 | 2.0 | 3.0 | 0.00 | 0.01 | 0.01 | 94 | 1013.7 |
| 20260506141218 | 62 | 260 | 0.0 | 0.0 | 0.00 | 0.01 | 0.01 | 94 | 1013.6 |
| 20260506141022 | 62 | 223 | 0.0 | 2.0 | 0.00 | 0.00 | 0.00 | 93 | 1017.8 |
| 20260506140715 | 62 | 269 | 0.0 | 2.0 | 0.05 | 0.01 | 0.01 | 93 | 1013.6 |
| 20260506140212 | 62 | 270 | 3.0 | 4.0 | 0.05 | 0.01 | 0.01 | 91 | 1013.6 |
| 20260506135708 | 63 | 237 | 2.0 | 2.0 | 0.00 | 0.00 | 0.00 | 90 | 1013.8 |
| 20260506135205 | 63 | 300 | 0.0 | 4.0 | 0.00 | 0.00 | 0.00 | 90 | 1013.9 |
| 20260506135112 | 63 | 260 | 1.0 | 2.0 | 0.00 | 0.00 | 0.00 | 89 | 1018.0 |
| 20260506134702 | 63 | 294 | 0.0 | 2.0 | 0.00 | 0.00 | 0.00 | 88 | 1014.0 |
| 20260506134157 | 63 | 300 | 4.0 | 4.0 | 0.00 | 0.00 | 0.00 | 86 | 1013.8 |
| 20260506134044 | 63 | 306 | 2.0 | 4.0 | 0.00 | 0.00 | 0.00 | 86 | 1018.0 |
| 20260506133654 | 63 | 276 | 1.0 | 3.0 | 0.00 | 0.00 | 0.00 | 86 | 1014.0 |
| 20260506133151 | 64 | 269 | 2.0 | 4.0 | 0.00 | 0.00 | 0.00 | 84 | 1013.8 |
| 20260506133041 | 64 | 256 | 3.0 | 6.0 | 0.00 | 0.00 | 0.00 | 83 | 1018.0 |
| 20260506132649 | 64 | 273 | 2.0 | 6.0 | 0.00 | 0.00 | 0.00 | 82 | 1014.0 |
| 20260506132146 | 65 | 274 | 8.0 | 9.0 | 0.00 | 0.00 | 0.00 | 79 | 1013.8 |
| 20260506132035 | 65 | 270 | 2.0 | 7.0 | 0.00 | 0.00 | 0.00 | 78 | 1018.0 |
| 20260506131644 | 65 | 267 | 1.0 | 6.0 | 0.00 | 0.00 | 0.00 | 78 | 1013.8 |
| 20260506131139 | 65 | 278 | 6.0 | 7.0 | 0.00 | 0.00 | 0.00 | 77 | 1013.8 |
| 20260506131029 | 65 | 274 | 2.0 | 8.0 | 0.00 | 0.00 | 0.00 | 77 | 1018.0 |
| 20260506130636 | 66 | 223 | 2.0 | 8.0 | 0.00 | 0.00 | 0.00 | 77 | 1013.8 |
| 20260506130134 | 66 | 91 | 6.0 | 7.0 | 0.00 | 0.00 | 0.00 | 77 | 1013.7 |
| 20260506130022 | 66 | 254 | 2.0 | 6.0 | 0.00 | 0.00 | 0.00 | 77 | 1017.6 |
| 20260506125632 | 66 | 235 | 1.0 | 3.0 | 0.00 | 0.00 | 0.00 | 77 | 1013.4 |
| 20260506125129 | 66 | 249 | 1.0 | 7.0 | 0.00 | 0.00 | 0.00 | 76 | 1013.4 |
| 20260506125038 | 66 | 300 | 2.0 | 6.0 | 0.00 | 0.00 | 0.00 | 76 | 1017.5 |
| 20260506124627 | 66 | 217 | 0.0 | 3.0 | 0.00 | 0.00 | 0.00 | 77 | 1013.3 |
| 20260506124125 | 66 | 80 | 2.0 | 7.0 | 0.00 | 0.00 | 0.00 | 77 | 1013.4 |
| 20260506124053 | 65 | 290 | 2.0 | 6.0 | 0.00 | 0.00 | 0.00 | 77 | 1017.6 |
| 20260506123622 | 66 | 278 | 3.0 | 3.0 | 0.00 | 0.00 | 0.00 | 77 | 1013.3 |
| 20260506123121 | 65 | 271 | 2.0 | 3.0 | 0.00 | 0.00 | 0.00 | 77 | 1013.2 |
| 20260506123048 | 65 | 288 | 3.0 | 6.0 | 0.00 | 0.00 | 0.00 | 77 | 1017.5 |
| 20260506122617 | 65 | 5 | 2.0 | 4.0 | 0.00 | 0.00 | 0.00 | 77 | 1013.4 |
| 20260506122115 | 65 | 269 | 4.0 | 7.0 | 0.00 | 0.00 | 0.00 | 77 | 1013.5 |
| 20260506122044 | 65 | 240 | 2.0 | 6.0 | 0.00 | 0.00 | 0.00 | 77 | 1017.8 |
| 20260506121612 | 65 | 263 | 2.0 | 3.0 | 0.00 | 0.00 | 0.00 | 77 | 1013.7 |
| 20260506121109 | 65 | 348 | 1.0 | 6.0 | 0.00 | 0.00 | 0.00 | 78 | 1013.6 |
| 20260506121040 | 65 | 285 | 2.0 | 6.0 | 0.00 | 0.00 | 0.00 | 77 | 1017.8 |
| 20260506120607 | 65 | 246 | 0.0 | 6.0 | 0.00 | 0.00 | 0.00 | 77 | 1013.6 |
| 20260506120103 | 65 | 325 | 0.0 | 4.0 | 0.00 | 0.00 | 0.00 | 77 | 1013.8 |
| 20260506120038 | 65 | 240 | 3.0 | 6.0 | 0.00 | 0.00 | 0.00 | 77 | 1017.8 |
| 20260506115602 | 65 | 187 | 1.0 | 2.0 | 0.00 | 0.00 | 0.00 | 77 | 1013.6 |
| 20260506115100 | 65 | 269 | 0.0 | 8.0 | 0.00 | 0.00 | 0.00 | 78 | 1013.6 |
| 20260506115032 | 65 | 264 | 3.0 | 8.0 | 0.00 | 0.00 | 0.00 | 77 | 1017.8 |
| 20260506114556 | 65 | 251 | 2.0 | 4.0 | 0.00 | 0.00 | 0.00 | 77 | 1013.7 |
| 20260506114055 | 65 | 229 | 2.0 | 3.0 | 0.00 | 0.00 | 0.00 | 78 | 1013.7 |
| 20260506114029 | 65 | 262 | 2.0 | 4.0 | 0.00 | 0.00 | 0.00 | 77 | 1017.9 |
| 20260506113552 | 65 | 312 | 3.0 | 4.0 | 0.00 | 0.00 | 0.00 | 77 | 1013.7 |
| 20260506113049 | 65 | 60 | 2.0 | 2.0 | 0.00 | 0.00 | 0.00 | 78 | 1013.7 |
| 20260506113046 | 65 | 252 | 1.0 | 3.0 | 0.00 | 0.00 | 0.00 | 78 | 1017.8 |
| 20260506112546 | 65 | 226 | 1.0 | 2.0 | 0.00 | 0.00 | 0.00 | 77 | 1013.5 |
| 20260506112056 | 65 | 274 | 3.0 | 7.0 | 0.00 | 0.00 | 0.00 | 78 | 1017.7 |
| 20260506112044 | 65 | 175 | 1.0 | 2.0 | 0.00 | 0.00 | 0.00 | 78 | 1013.5 |
| 20260506111541 | 65 | 125 | 2.0 | 3.0 | 0.00 | 0.00 | 0.00 | 78 | 1013.5 |
| 20260506111049 | 65 | 282 | 3.0 | 8.0 | 0.00 | 0.00 | 0.00 | 78 | 1017.7 |
| 20260506111038 | 65 | 311 | 2.0 | 3.0 | 0.00 | 0.00 | 0.00 | 78 | 1013.5 |
| 20260506110536 | 65 | 241 | 2.0 | 4.0 | 0.00 | 0.00 | 0.00 | 78 | 1013.4 |
| 20260506110058 | 64 | 271 | 3.0 | 7.0 | 0.00 | 0.00 | 0.00 | 79 | 1017.7 |
| 20260506110033 | 64 | 267 | 2.0 | 7.0 | 0.00 | 0.00 | 0.00 | 79 | 1013.4 |
| 20260506105529 | 64 | 274 | 3.0 | 4.0 | 0.00 | 0.00 | 0.00 | 79 | 1013.6 |
| 20260506105032 | 64 | 275 | 3.0 | 6.0 | 0.00 | 0.00 | 0.00 | 80 | 1017.7 |
| 20260506105027 | 64 | 269 | 1.0 | 3.0 | 0.00 | 0.00 | 0.00 | 80 | 1013.6 |
| 20260506104524 | 64 | 266 | 2.0 | 4.0 | 0.00 | 0.00 | 0.00 | 80 | 1013.4 |
| 20260506104022 | 64 | 232 | 1.0 | 4.0 | 0.00 | 0.00 | 0.00 | 80 | 1013.5 |
| 20260506103519 | 64 | 249 | 5.0 | 7.0 | 0.00 | 0.00 | 0.00 | 80 | 1013.4 |
| 20260506103051 | 64 | 282 | 2.0 | 6.0 | 0.00 | 0.00 | 0.00 | 80 | 1017.4 |
| 20260506103016 | 64 | 281 | 0.0 | 1.0 | 0.00 | 0.00 | 0.00 | 81 | 1013.2 |
| 20260506102514 | 64 | 276 | 4.0 | 7.0 | 0.00 | 0.00 | 0.00 | 80 | 1013.3 |
| 20260506102039 | 64 | 282 | 2.0 | 4.0 | 0.00 | 0.00 | 0.00 | 81 | 1017.5 |
| 20260506102011 | 64 | 279 | 2.0 | 4.0 | 0.00 | 0.00 | 0.00 | 81 | 1013.4 |
| 20260506101508 | 64 | 260 | 0.0 | 7.0 | 0.00 | 0.00 | 0.00 | 81 | 1013.4 |
| 20260506101029 | 64 | 258 | 3.0 | 10.0 | 0.00 | 0.00 | 0.00 | 81 | 1017.3 |
| 20260506101005 | 64 | 268 | 2.0 | 6.0 | 0.00 | 0.00 | 0.00 | 81 | 1013.2 |
| 20260506100503 | 64 | 223 | 2.0 | 6.0 | 0.00 | 0.00 | 0.00 | 81 | 1013.2 |
| 20260506100022 | 64 | 247 | 2.0 | 6.0 | 0.00 | 0.00 | 0.00 | 82 | 1017.2 |
| 20260506100001 | 64 | 274 | 3.0 | 9.0 | 0.00 | 0.00 | 0.00 | 82 | 1013.1 |
| 20260506095459 | 64 | 265 | 1.0 | 3.0 | 0.00 | 0.00 | 0.00 | 82 | 1013.1 |
| 20260506095048 | 64 | 272 | 2.0 | 7.0 | 0.00 | 0.00 | 0.00 | 82 | 1017.4 |
| 20260506094954 | 64 | 227 | 2.0 | 2.0 | 0.00 | 0.00 | 0.00 | 83 | 1013.2 |
| 20260506094453 | 64 | 213 | 0.0 | 2.0 | 0.00 | 0.00 | 0.00 | 82 | 1013.3 |
| 20260506094058 | 64 | 289 | 3.0 | 4.0 | 0.00 | 0.00 | 0.00 | 82 | 1017.5 |
| 20260506093950 | 64 | 272 | 3.0 | 4.0 | 0.00 | 0.00 | 0.00 | 82 | 1013.1 |
| 20260506093448 | 64 | 239 | 4.0 | 8.0 | 0.00 | 0.00 | 0.00 | 82 | 1013.3 |
| 20260506093025 | 64 | 262 | 2.0 | 4.0 | 0.00 | 0.00 | 0.00 | 82 | 1017.5 |
| 20260506092945 | 64 | 337 | 2.0 | 4.0 | 0.00 | 0.00 | 0.00 | 82 | 1013.4 |
| 20260506092443 | 64 | 300 | 3.0 | 9.0 | 0.00 | 0.00 | 0.00 | 82 | 1013.2 |
| 20260506092054 | 64 | 242 | 1.0 | 1.0 | 0.00 | 0.00 | 0.00 | 82 | 1017.4 |
| 20260506091940 | 64 | 227 | 1.0 | 2.0 | 0.00 | 0.00 | 0.00 | 83 | 1013.2 |
| 20260506091439 | 64 | 296 | 3.0 | 4.0 | 0.00 | 0.00 | 0.00 | 82 | 1013.4 |
| 20260506091041 | 64 | 271 | 2.0 | 6.0 | 0.00 | 0.00 | 0.00 | 82 | 1017.5 |
| 20260506090935 | 64 | 274 | 4.0 | 6.0 | 0.00 | 0.00 | 0.00 | 82 | 1013.3 |
| 20260506090433 | 64 | 285 | 2.0 | 4.0 | 0.00 | 0.00 | 0.00 | 82 | 1013.2 |
| 20260506090030 | 64 | 281 | 2.0 | 6.0 | 0.00 | 0.00 | 0.00 | 82 | 1017.6 |
| 20260506085929 | 64 | 332 | 4.0 | 6.0 | 0.00 | 0.00 | 0.00 | 82 | 1013.3 |
| 20260506085426 | 64 | 213 | 0.0 | 3.0 | 0.00 | 0.00 | 0.00 | 82 | 1013.4 |
| 20260506085017 | 64 | 264 | 2.0 | 3.0 | 0.00 | 0.00 | 0.00 | 82 | 1017.5 |
| 20260506084922 | 64 | 295 | 3.0 | 4.0 | 0.00 | 0.00 | 0.00 | 82 | 1013.4 |
| 20260506084419 | 64 | 325 | 3.0 | 6.0 | 0.00 | 0.00 | 0.00 | 82 | 1013.5 |
| 20260506084046 | 64 | 271 | 2.0 | 4.0 | 0.00 | 0.00 | 0.00 | 81 | 1017.5 |
| 20260506083915 | 64 | 205 | 1.0 | 3.0 | 0.00 | 0.00 | 0.00 | 81 | 1013.3 |
| 20260506083413 | 64 | 271 | 5.0 | 8.0 | 0.00 | 0.00 | 0.00 | 82 | 1013.5 |
| 20260506083038 | 64 | 284 | 2.0 | 7.0 | 0.00 | 0.00 | 0.00 | 81 | 1017.6 |
| 20260506082910 | 64 | 225 | 2.0 | 3.0 | 0.00 | 0.00 | 0.00 | 81 | 1013.5 |
| 20260506082407 | 65 | 295 | 4.0 | 6.0 | 0.00 | 0.00 | 0.00 | 80 | 1013.2 |
| 20260506082027 | 65 | 294 | 3.0 | 9.0 | 0.00 | 0.00 | 0.00 | 80 | 1017.5 |
| 20260506081902 | 65 | 283 | 4.0 | 6.0 | 0.00 | 0.00 | 0.00 | 80 | 1013.2 |
| 20260506081401 | 65 | 339 | 5.0 | 7.0 | 0.00 | 0.00 | 0.00 | 80 | 1013.3 |
| 20260506081103 | 65 | 264 | 1.0 | 3.0 | 0.00 | 0.00 | 0.00 | 80 | 1017.5 |
| 20260506080858 | 65 | 201 | 2.0 | 2.0 | 0.00 | 0.00 | 0.00 | 80 | 1013.3 |
| 20260506080355 | 65 | 165 | 3.0 | 6.0 | 0.00 | 0.00 | 0.00 | 80 | 1013.2 |
| 20260506073338 | 65 | 251 | 6.0 | 13.0 | 0.00 | 0.00 | 0.00 | 78 | 1013.4 |
| 20260506073039 | 66 | 249 | 2.0 | 4.0 | 0.00 | 0.00 | 0.00 | 78 | 1017.5 |
| 20260506072835 | 66 | 56 | 4.0 | 7.0 | 0.00 | 0.00 | 0.00 | 78 | 1013.3 |
| 20260506072333 | 66 | 278 | 5.0 | 9.0 | 0.00 | 0.00 | 0.00 | 77 | 1013.5 |
| 20260506072036 | 66 | 282 | 3.0 | 7.0 | 0.00 | 0.00 | 0.00 | 77 | 1017.7 |
| 20260506071831 | 66 | 329 | 4.0 | 6.0 | 0.00 | 0.00 | 0.00 | 77 | 1013.5 |